Location: Stockholm
(59.3333°N, 18.0500°E)
Time: 12:57:28
(UTC+02:00)

ISS - Pass Details

Date: 13 May 2021
Orbit: 417 x 422 km, 51.6° (Epoch: 14 May)

Event Time Altitude Azimuth Distance (km) Brightness Sun altitude
Exits shadow 02:05:02 13° 229° (SW) 1,309 -1.8 -10.5°
Maximum altitude 02:07:05 22° 183° (S) 971 -2.5 -10.4°
Drops below altitude 10° 02:09:46 10° 131° (SE) 1,505 -1.1 -10.3°
Sets 02:12:09 0° 115° (ESE) 2,370 0.0 -10.2°
